SCP
0 0 0 0 0 0 0 0 0 0 0 0 0 0 0 0 0 0 0 0 0 -0 -0 0 -0 -0 0 0 0 0 0 0 0 0 0 0 0 0
0 0 0 0 0 0 0 0 0 0 0 0 0 0 0 0 0 -0 0 0 -0 -0 -0 -0 0 -0 0 0 0 0 0 0 0 0 0 0 0 0
0 0 0 0 0 0 0 0 0 0 0 0 0 0 0 0 0 -0 0 0 -0 -0 0 -0 -0 -0 -0 0 0 0 0 0 0 0 0 0 0 0
0 0 0 0 0 0 0 0 0 0 0 0 0 0 0 0 0 0 -0 -0 -0 0 0 -0 -0 -0 -0 -0 -0 -0 -0 0 0 0 0 0 0 0
0 0 0 0 0 0 0 0 0 0 0 0 0 0 0 0 0 0 0 0 -0 -0 0 -0 -0 -0 0 0 0 0 0 0 0 0 0 0 0 0
0 0 0 0 0 0 0 0 0 0 0 0 0 0 0 0 0 0 0 0 0 0 0 0 0 0 0 0 0 0 0 0 0 0 0 0 0 0
0 0 0 0 0 0 0 0 0 0 0 0 0 0 0 0 0 0 0 0 0 0 0 0 0 0 0 0 0 0 0 0 0 0 0 0 0 0
0 0 0 0 0 0 0 0 0 0 0 0 0 0 0 0 0 0 0 0 0 0 0 0 0 0 0 0 0 0 0 0 0 0 0 0 0 0
0 0 0 0 0 0 0 0 0 0 0 0 0 0 0 0 0 0 0 0 0 0 0 0 0 0 0 0 0 0 0 0 0 0 0 0 0 0
0 0 0 0 0 0 0 0 0 0 0 0 0 0 0 0 0 0 0 0 0 0 0 0 0 0 0 0 0 -0 -0 0 0 -0 0 0 0 0
0 0 0 0 -0 0 0 0 0 0 0 0 0 0 0 0 0 0 0 0 0 0 0 0 0 0 0 0 0 -0 -0 -0 0 0 0 0 0 0
0 0 0 0 0 -0 0 0 0 0 0 0 0 0 0 0 0 0 0 0 0 0 0 0 0 0 0 0 0 0 0 0 0 0 0 0 0 0
0 0 0 0 0 0 0 0 0 0 0 0 0 0 0 0 0 0 0 0 0 0 0 0 0 0 0 0 0 0 0 0 0 0 0 0 0 0
0 0 0 0 0 0 0 0 0 0 0 0 0 0 0 0 0 0 0 0 0 0 0 0 0 0 0 0 0 0 0 0 -0 0 0 0 0 -0
0 0 0 0 0 0 0 0 0 0 0 0 0 0 0 0 0 0 0 0 0 0 0 0 0 0 0 0 0 0 0 0 -0 0 0 0 0 0
0 0 0 0 0 0 0 0 0 0 0 0 0 0 0 0 0 0 0 0 0 -0 0 0 0 0 0 0 0 0 0 0 0 0 0 0 0 0
0 0 0 0 0 0 0 0 0 0 0 0 0 0 0 0 0 0 0 0 0 0 0 0 0 0 0 0 0 0 0 0 0 -0 -0 0 0 0
0 0 0 0 0 0 -0 0 0 0 -0 0 0 0 -0 0 0 0 0 0 0 0 0 0 0 0 0 0 0 0 0 0 0 -0 0 0 0 0
0 0 0 0 0 -0 -0 0 -0 -0 0 0 0 0 0 0 0 -0 0 0 0 0 0 0 0 0 0 0 0 0 0 0 0 0 0 -0 -0 0
0 0 0 0 0 0 0 -0 -0 0 0 -0 -0 -0 0 -0 0 0 0 0 0 0 0 0 0 0 0 0 0 0 -0 0 0 0 0 0 0 0
0 0 0 0 0 -0 -0 -0 -0 -0 0 -0 -0 -0 0 0 0 0 0 0 0 0 0 -0 -0 -0 0 0 0 0 -0 0 -0 0 -0 -0 -0 0
0 0 0 0 -0 -0 -0 -0 -0 -0 0 0 0 0 0 0 0 0 0 0 0 -0 -0 -0 0 0 0 -0 -0 0 -0 0 -0 0 0 0 0 0
0 0 0 0 0 -0 -0 -0 -0 -0 -0 -0 -0 -0 0 0 0 -0 0 0 0 0 -0 -0 0 -0 0 -0 -0 -0 0 -0 -0 0 0 0 0 0
Wind_Speed_500mb
26 26 29 32 23 19 25 21 22 30 36 24 23 21 17 19 18 22 25 23 19 16 12 12 13 13 15 17 25 29 31 34 36 37 39 40 42 43
28 26 30 33 29 24 22 20 19 22 24 33 25 20 15 17 23 25 24 20 18 18 20 22 22 22 23 25 25 27 31 34 37 39 40 41 42 47
32 29 32 32 33 29 27 20 18 19 26 25 24 24 24 22 20 19 22 21 15 17 15 17 13 15 16 18 22 25 24 27 33 37 43 47 47 47
37 38 44 35 37 33 32 26 24 23 25 31 29 25 28 27 26 24 22 16 17 18 17 14 20 20 21 18 19 18 22 23 23 33 40 45 51 55
44 51 49 44 39 38 40 35 32 30 23 29 28 24 27 25 25 26 26 25 18 16 21 17 21 19 17 20 23 25 22 27 37 45 44 46 52 56
52 53 48 45 41 37 38 36 39 37 30 29 30 26 22 21 25 18 21 18 22 23 26 31 27 26 26 28 31 32 33 38 51 54 48 46 52 58
53 56 56 49 41 41 42 43 42 41 34 29 27 27 29 30 21 23 26 26 27 28 28 22 24 27 28 32 36 37 40 47 63 52 49 54 55 58
62 61 58 50 39 39 40 41 39 39 37 35 30 28 28 30 29 29 30 34 32 23 29 28 28 33 32 30 38 41 46 61 60 51 58 51 50 52
66 70 63 52 42 42 37 41 42 40 39 36 39 35 30 24 23 30 29 31 36 34 34 34 20 27 29 35 41 39 50 51 46 56 47 45 47 47
76 75 68 55 45 45 42 37 38 35 34 36 38 34 32 29 28 28 31 38 40 37 25 33 22 20 27 35 36 42 58 44 43 47 39 42 43 45
72 63 61 55 45 52 57 49 35 36 33 36 38 35 34 31 34 34 37 38 42 35 21 22 23 28 31 36 29 44 46 36 42 35 36 42 43 37
54 43 50 22 26 35 44 40 41 40 29 34 37 40 43 40 36 39 35 37 40 40 15 22 29 32 32 24 29 43 38 37 32 27 32 26 22 23
47 47 48 35 43 42 47 50 45 43 45 47 46 40 43 43 33 36 40 33 33 35 21 29 33 31 25 32 35 37 42 26 23 19 21 20 16 15
54 48 46 42 45 46 52 57 62 64 61 57 51 49 50 43 31 35 35 33 32 33 26 30 38 33 31 35 41 37 38 24 25 17 13 12 10 10
52 53 53 49 46 46 48 52 54 54 57 61 62 58 45 37 29 34 39 32 26 27 37 34 34 36 35 36 40 38 46 28 17 14 17 14 12 12
46 47 48 50 44 45 43 44 45 45 42 42 41 40 37 44 39 33 39 38 33 32 25 24 29 33 38 40 42 39 40 24 19 16 15 9 14 16
53 54 52 53 52 48 47 40 40 37 39 32 37 38 41 42 43 29 31 28 31 30 28 20 29 28 29 40 45 40 38 23 16 16 5 5 6 14
60 61 58 54 50 50 48 44 42 40 38 32 25 20 23 22 19 25 30 33 32 32 27 33 27 25 23 28 33 31 27 16 12 11 5 5 6 8
69 61 58 56 52 51 53 48 48 45 43 24 24 21 17 19 22 21 23 23 30 28 22 24 26 22 24 31 26 24 18 9 8 8 10 8 11 4
70 63 61 61 52 52 48 55 52 42 35 27 29 23 23 25 21 33 26 22 19 15 31 20 27 16 13 21 24 16 6 8 4 3 3 5 13 10
72 67 59 56 51 56 60 52 48 40 31 31 26 20 19 19 24 25 30 18 17 22 21 14 5 6 6 3 14 6 9 14 22 21 11 11 6 14
73 63 60 73 74 58 42 45 40 33 33 28 20 22 17 17 17 25 28 17 9 10 8 13 12 15 10 10 10 2 10 5 10 13 16 18 16 7
67 70 66 68 63 43 35 35 29 31 38 37 17 8 5 10 16 28 27 21 8 4 11 14 22 11 9 16 6 9 8 9 11 19 17 12 7 7
Wind_Direction_500mb
342 331 340 345 347 339 340 326 332 330 331 334 345 341 307 292 285 289 302 303 287 276 271 279 287 284 283 267 257 255 253 258 260 261 259 257 252 251
331 324 328 330 343 342 336 352 333 315 316 319 312 314 316 300 293 291 297 294 292 294 280 277 291 294 285 280 273 267 268 262 260 261 262 262 256 250
326 327 317 308 314 324 329 313 321 319 316 325 341 311 295 309 305 299 306 304 301 309 292 283 287 298 306 295 289 282 278 273 270 271 268 263 260 257
309 310 312 310 294 299 308 317 305 300 311 312 318 325 311 298 300 299 295 300 301 298 302 291 294 300 304 302 311 310 297 277 290 295 288 273 263 260
305 312 305 303 296 283 285 294 307 300 303 294 305 321 304 317 299 297 297 292 295 312 307 302 307 288 303 300 302 307 303 303 305 301 289 275 268 263
304 311 313 299 290 286 276 288 293 293 296 295 289 290 320 309 323 316 301 282 291 292 290 292 289 292 288 289 305 298 295 298 309 304 286 280 275 265
298 304 309 305 283 277 280 276 280 285 286 291 293 276 277 296 297 310 301 301 301 300 292 291 290 292 296 299 307 304 297 298 307 301 293 288 280 268
294 297 301 306 283 280 267 275 276 273 277 281 288 285 279 279 285 282 288 302 312 331 319 291 283 285 293 289 305 306 298 300 300 297 298 290 282 270
296 295 296 300 290 285 286 276 272 271 275 283 282 282 283 270 274 270 278 287 298 311 310 312 293 276 283 292 302 299 303 302 293 295 290 281 281 278
302 304 301 301 294 287 281 277 273 271 278 281 284 294 279 276 261 269 275 286 297 302 309 301 298 296 290 295 300 297 310 303 297 297 293 291 283 274
295 312 298 293 280 287 288 276 275 279 283 281 286 283 291 292 269 259 263 277 289 300 283 285 285 301 304 304 303 317 316 306 309 294 295 291 278 266
332 316 320 304 291 284 290 286 280 286 284 279 285 283 280 285 271 255 258 266 271 288 288 266 291 304 310 312 316 325 318 311 316 307 300 295 278 263
341 330 319 309 289 281 287 287 288 293 290 289 282 288 284 279 274 253 253 258 259 271 269 276 283 301 295 307 317 330 326 310 313 305 302 298 274 253
346 342 340 328 318 300 289 284 285 289 281 282 274 277 298 280 275 258 253 239 256 269 269 268 277 285 291 304 307 321 334 302 301 288 292 320 281 236
340 339 339 333 318 304 303 301 299 297 280 275 280 278 303 283 275 258 244 246 242 277 269 264 274 283 291 288 298 311 333 322 320 298 317 293 281 217
341 339 337 338 341 338 333 326 318 309 294 285 284 282 282 281 268 253 250 243 251 266 263 261 294 270 279 288 289 308 327 315 318 293 322 285 234 245
355 355 347 343 341 345 343 335 322 313 307 295 288 283 292 263 262 253 240 220 233 255 267 247 253 259 280 284 284 300 316 307 315 306 286 353 293 242
360 359 357 353 346 345 349 343 343 335 311 306 308 300 293 259 259 252 218 223 238 250 263 260 267 260 276 283 288 300 314 305 317 315 282 280 353 207
3 3 2 357 347 339 342 340 332 334 330 306 287 300 286 278 254 204 201 230 239 254 254 243 233 283 274 282 281 292 319 320 294 288 310 257 234 228
5 3 358 356 352 352 348 341 338 331 329 309 314 298 273 271 231 215 217 228 245 252 226 229 253 269 295 284 287 281 344 350 325 277 242 179 188 195
3 359 358 357 351 347 345 343 341 341 333 314 300 286 267 261 243 220 211 220 244 217 233 242 239 207 278 87 273 270 131 81 73 70 75 83 156 187
3 0 356 349 337 339 345 344 349 346 344 339 316 294 278 244 230 193 184 222 171 217 265 228 233 253 197 266 321 69 164 126 87 67 63 55 50 85
8 2 5 4 14 4 6 11 1 7 11 353 328 337 226 198 159 174 175 202 210 336 248 290 228 198 190 238 259 120 131 154 110 99 66 54 58 26
Wind_Speed_850mb
26 26 29 32 23 19 25 21 22 30 36 24 23 21 17 19 18 22 25 23 19 16 12 12 13 13 15 17 25 29 31 34 36 37 39 40 42 43
28 26 30 33 29 24 22 20 19 22 24 33 25 20 15 17 23 25 24 20 18 18 20 22 22 22 23 25 25 27 31 34 37 39 40 41 42 47
32 29 32 32 33 29 27 20 18 19 26 25 24 24 24 22 20 19 22 21 15 17 15 17 13 15 16 18 22 25 24 27 33 37 43 47 47 47
37 38 44 35 37 33 32 26 24 23 25 31 29 25 28 27 26 24 22 16 17 18 17 14 20 20 21 18 19 18 22 23 23 33 40 45 51 55
44 51 49 44 39 38 40 35 32 30 23 29 28 24 27 25 25 26 26 25 18 16 21 17 21 19 17 20 23 25 22 27 37 45 44 46 52 56
52 53 48 45 41 37 38 36 39 37 30 29 30 26 22 21 25 18 21 18 22 23 26 31 27 26 26 28 31 32 33 38 51 54 48 46 52 58
53 56 56 49 41 41 42 43 42 41 34 29 27 27 29 30 21 23 26 26 27 28 28 22 24 27 28 32 36 37 40 47 63 52 49 54 55 58
62 61 58 50 39 39 40 41 39 39 37 35 30 28 28 30 29 29 30 34 32 23 29 28 28 33 32 30 38 41 46 61 60 51 58 51 50 52
66 70 63 52 42 42 37 41 42 40 39 36 39 35 30 24 23 30 29 31 36 34 34 34 20 27 29 35 41 39 50 51 46 56 47 45 47 47
76 75 68 55 45 45 42 37 38 35 34 36 38 34 32 29 28 28 31 38 40 37 25 33 22 20 27 35 36 42 58 44 43 47 39 42 43 45
72 63 61 55 45 52 57 49 35 36 33 36 38 35 34 31 34 34 37 38 42 35 21 22 23 28 31 36 29 44 46 36 42 35 36 42 43 37
54 43 50 22 26 35 44 40 41 40 29 34 37 40 43 40 36 39 35 37 40 40 15 22 29 32 32 24 29 43 38 37 32 27 32 26 22 23
47 47 48 35 43 42 47 50 45 43 45 47 46 40 43 43 33 36 40 33 33 35 21 29 33 31 25 32 35 37 42 26 23 19 21 20 16 15
54 48 46 42 45 46 52 57 62 64 61 57 51 49 50 43 31 35 35 33 32 33 26 30 38 33 31 35 41 37 38 24 25 17 13 12 10 10
52 53 53 49 46 46 48 52 54 54 57 61 62 58 45 37 29 34 39 32 26 27 37 34 34 36 35 36 40 38 46 28 17 14 17 14 12 12
46 47 48 50 44 45 43 44 45 45 42 42 41 40 37 44 39 33 39 38 33 32 25 24 29 33 38 40 42 39 40 24 19 16 15 9 14 16
53 54 52 53 52 48 47 40 40 37 39 32 37 38 41 42 43 29 31 28 31 30 28 20 29 28 29 40 45 40 38 23 16 16 5 5 6 14
60 61 58 54 50 50 48 44 42 40 38 32 25 20 23 22 19 25 30 33 32 32 27 33 27 25 23 28 33 31 27 16 12 11 5 5 6 8
69 61 58 56 52 51 53 48 48 45 43 24 24 21 17 19 22 21 23 23 30 28 22 24 26 22 24 31 26 24 18 9 8 8 10 8 11 4
70 63 61 61 52 52 48 55 52 42 35 27 29 23 23 25 21 33 26 22 19 15 31 20 27 16 13 21 24 16 6 8 4 3 3 5 13 10
72 67 59 56 51 56 60 52 48 40 31 31 26 20 19 19 24 25 30 18 17 22 21 14 5 6 6 3 14 6 9 14 22 21 11 11 6 14
73 63 60 73 74 58 42 45 40 33 33 28 20 22 17 17 17 25 28 17 9 10 8 13 12 15 10 10 10 2 10 5 10 13 16 18 16 7
67 70 66 68 63 43 35 35 29 31 38 37 17 8 5 10 16 28 27 21 8 4 11 14 22 11 9 16 6 9 8 9 11 19 17 12 7 7
Wind_Direction_850mb
342 331 340 345 347 339 340 326 332 330 331 334 345 341 307 292 285 289 302 303 287 276 271 279 287 284 283 267 257 255 253 258 260 261 259 257 252 251
331 324 328 330 343 342 336 352 333 315 316 319 312 314 316 300 293 291 297 294 292 294 280 277 291 294 285 280 273 267 268 262 260 261 262 262 256 250
326 327 317 308 314 324 329 313 321 319 316 325 341 311 295 309 305 299 306 304 301 309 292 283 287 298 306 295 289 282 278 273 270 271 268 263 260 257
309 310 312 310 294 299 308 317 305 300 311 312 318 325 311 298 300 299 295 300 301 298 302 291 294 300 304 302 311 310 297 277 290 295 288 273 263 260
305 312 305 303 296 283 285 294 307 300 303 294 305 321 304 317 299 297 297 292 295 312 307 302 307 288 303 300 302 307 303 303 305 301 289 275 268 263
304 311 313 299 290 286 276 288 293 293 296 295 289 290 320 309 323 316 301 282 291 292 290 292 289 292 288 289 305 298 295 298 309 304 286 280 275 265
298 304 309 305 283 277 280 276 280 285 286 291 293 276 277 296 297 310 301 301 301 300 292 291 290 292 296 299 307 304 297 298 307 301 293 288 280 268
294 297 301 306 283 280 267 275 276 273 277 281 288 285 279 279 285 282 288 302 312 331 319 291 283 285 293 289 305 306 298 300 300 297 298 290 282 270
296 295 296 300 290 285 286 276 272 271 275 283 282 282 283 270 274 270 278 287 298 311 310 312 293 276 283 292 302 299 303 302 293 295 290 281 281 278
302 304 301 301 294 287 281 277 273 271 278 281 284 294 279 276 261 269 275 286 297 302 309 301 298 296 290 295 300 297 310 303 297 297 293 291 283 274
295 312 298 293 280 287 288 276 275 279 283 281 286 283 291 292 269 259 263 277 289 300 283 285 285 301 304 304 303 317 316 306 309 294 295 291 278 266
332 316 320 304 291 284 290 286 280 286 284 279 285 283 280 285 271 255 258 266 271 288 288 266 291 304 310 312 316 325 318 311 316 307 300 295 278 263
341 330 319 309 289 281 287 287 288 293 290 289 282 288 284 279 274 253 253 258 259 271 269 276 283 301 295 307 317 330 326 310 313 305 302 298 274 253
346 342 340 328 318 300 289 284 285 289 281 282 274 277 298 280 275 258 253 239 256 269 269 268 277 285 291 304 307 321 334 302 301 288 292 320 281 236
340 339 339 333 318 304 303 301 299 297 280 275 280 278 303 283 275 258 244 246 242 277 269 264 274 283 291 288 298 311 333 322 320 298 317 293 281 217
341 339 337 338 341 338 333 326 318 309 294 285 284 282 282 281 268 253 250 243 251 266 263 261 294 270 279 288 289 308 327 315 318 293 322 285 234 245
355 355 347 343 341 345 343 335 322 313 307 295 288 283 292 263 262 253 240 220 233 255 267 247 253 259 280 284 284 300 316 307 315 306 286 353 293 242
360 359 357 353 346 345 349 343 343 335 311 306 308 300 293 259 259 252 218 223 238 250 263 260 267 260 276 283 288 300 314 305 317 315 282 280 353 207
3 3 2 357 347 339 342 340 332 334 330 306 287 300 286 278 254 204 201 230 239 254 254 243 233 283 274 282 281 292 319 320 294 288 310 257 234 228
5 3 358 356 352 352 348 341 338 331 329 309 314 298 273 271 231 215 217 228 245 252 226 229 253 269 295 284 287 281 344 350 325 277 242 179 188 195
3 359 358 357 351 347 345 343 341 341 333 314 300 286 267 261 243 220 211 220 244 217 233 242 239 207 278 87 273 270 131 81 73 70 75 83 156 187
3 0 356 349 337 339 345 344 349 346 344 339 316 294 278 244 230 193 184 222 171 217 265 228 233 253 197 266 321 69 164 126 87 67 63 55 50 85
8 2 5 4 14 4 6 11 1 7 11 353 328 337 226 198 159 174 175 202 210 336 248 290 228 198 190 238 259 120 131 154 110 99 66 54 58 26